﻿_id,日時,平均風速(m/s),平均風向,最大瞬間風速(m/s),最大風速時風向,気温(℃),湿度(%),10分間移動積算雨量(mm),1時間移動積算雨量(mm),日雨量(mm),累計雨量(mm)
1,2020-03-30T00:00:00,1.4,北,3.5,北北西,6.5,71.7,0,0,1.5,18.5
2,2020-03-30T00:01:00,1.4,北,3.5,北北西,6.5,71.3,0,0,0,18.5
3,2020-03-30T00:02:00,1.5,北,3.5,北北西,6.6,70.9,0,0,0,18.5
4,2020-03-30T00:03:00,1.5,北,3.5,北北西,6.6,71.7,0,0,0,18.5
5,2020-03-30T00:04:00,1.5,北,3.5,北北西,6.5,72,0,0,0,18.5
6,2020-03-30T00:05:00,1.5,北,3.5,北北西,6.5,72.2,0,0,0,18.5
7,2020-03-30T00:06:00,1.5,北,3.5,北北西,6.4,71.8,0,0,0,18.5
8,2020-03-30T00:07:00,1.4,北,3.5,北北西,6.5,71.7,0,0,0,18.5
9,2020-03-30T00:08:00,1.4,北,3.5,北北西,6.5,71.7,0,0,0,18.5
10,2020-03-30T00:09:00,1.3,北,2.6,北,6.4,72.3,0,0,0,18.5
11,2020-03-30T00:10:00,1.3,北,2.8,北北西,6.3,73.2,0,0,0,18.5
12,2020-03-30T00:11:00,1.4,北,2.8,北北西,6.3,73.8,0,0,0,18.5
13,2020-03-30T00:12:00,1.4,北,2.8,北北西,6.3,74,0,0,0,18.5
14,2020-03-30T00:13:00,1.4,北,2.8,北北西,6.3,74.2,0,0,0,18.5
15,2020-03-30T00:14:00,1.5,北,2.8,北北西,6.3,74,0,0,0,18.5
16,2020-03-30T00:15:00,1.6,北,3.4,北北西,6.4,73.1,0,0,0,18.5
17,2020-03-30T00:16:00,1.7,北,3.4,北北西,6.6,69.9,0,0,0,18.5
18,2020-03-30T00:17:00,1.8,北,3.4,北北西,6.5,70.2,0,0,0,18.5
19,2020-03-30T00:18:00,1.8,北,3.4,北北西,6.4,71.6,0,0,0,18.5
20,2020-03-30T00:19:00,1.8,北,3.4,北北西,6.4,72.3,0,0,0,18.5
21,2020-03-30T00:20:00,1.8,北,3.4,北北西,6.4,72.6,0,0,0,18.5
22,2020-03-30T00:21:00,1.9,北,3.4,北北西,6.3,73,0,0,0,18.5
23,2020-03-30T00:22:00,1.9,北,3.4,北北西,6.3,73.5,0,0,0,18.5
24,2020-03-30T00:23:00,1.9,北,3.4,北北西,6.3,73.6,0,0,0,18.5
25,2020-03-30T00:24:00,1.9,北,3.4,北北西,6.4,73.4,0,0,0,18.5
26,2020-03-30T00:25:00,1.9,北,3.3,北北西,6.4,72.9,0,0,0,18.5
27,2020-03-30T00:26:00,1.8,北,3.2,北,6.3,72.8,0,0,0,18.5
28,2020-03-30T00:27:00,1.7,北,3.2,北,6.3,73.2,0,0,0,18.5
29,2020-03-30T00:28:00,1.7,北,3.2,北,6.3,73.6,0,0,0,18.5
30,2020-03-30T00:29:00,1.8,北,3.2,北,6.3,73.5,0,0,0,18.5
31,2020-03-30T00:30:00,1.8,北,3.2,北,6.2,73.9,0,0,0,18.5
32,2020-03-30T00:31:00,1.7,北,3.2,北,6.2,74.5,0,0,0,18.5
33,2020-03-30T00:32:00,1.7,北,3.2,北,6.2,74.5,0,0,0,18.5
34,2020-03-30T00:33:00,1.6,北,3.2,北,6.3,75.1,0,0,0,18.5
35,2020-03-30T00:34:00,1.6,北,2.7,北,6.3,75.1,0,0,0,18.5
36,2020-03-30T00:35:00,1.5,北,2.7,北,6.2,74.8,0,0,0,18.5
37,2020-03-30T00:36:00,1.6,北,2.7,北,6.2,74.8,0,0,0,18.5
38,2020-03-30T00:37:00,1.6,北,2.7,北,6.2,74.9,0,0,0,18.5
39,2020-03-30T00:38:00,1.6,北,2.6,北,6.3,73.9,0,0,0,18.5
40,2020-03-30T00:39:00,1.5,北,2.4,北,6.2,74.5,0,0,0,18.5
41,2020-03-30T00:40:00,1.4,北,2.4,北,6.2,74.6,0,0,0,18.5
42,2020-03-30T00:41:00,1.3,北,2.4,北,6.2,74.6,0,0,0,18.5
43,2020-03-30T00:42:00,1.3,北,2.4,北,6.2,74.6,0,0,0,18.5
44,2020-03-30T00:43:00,1.4,北,2.4,北,6.3,73.9,0,0,0,18.5
45,2020-03-30T00:44:00,1.4,北,2.4,北,6.3,73.2,0,0,0,18.5
46,2020-03-30T00:45:00,1.3,北,2.4,北,6.4,73.1,0,0,0,18.5
47,2020-03-30T00:46:00,1.3,北,2.4,北,6.3,73.2,0,0,0,18.5
48,2020-03-30T00:47:00,1.2,北,2.4,北,6.3,73.5,0,0,0,18.5
49,2020-03-30T00:48:00,1.2,北,2.4,北,6.3,73.7,0,0,0,18.5
50,2020-03-30T00:49:00,1.1,北,2.4,北,6.4,73.3,0,0,0,18.5
51,2020-03-30T00:50:00,1,北,2.4,北,6.4,72.9,0,0,0,18.5
52,2020-03-30T00:51:00,1,北,2.4,北,6.3,73.7,0,0,0,18.5
53,2020-03-30T00:52:00,0.9,北,2.4,北,6.2,74.2,0,0,0,18.5
54,2020-03-30T00:53:00,0.8,北,2.4,北,6.3,74.3,0,0,0,18.5
55,2020-03-30T00:54:00,0.8,北,2.4,北,6.4,73.8,0,0,0,18.5
56,2020-03-30T00:55:00,0.8,北,2.4,北,6.3,73.5,0,0,0,18.5
57,2020-03-30T00:56:00,0.7,北,2.1,北,6.4,72,0,0,0,18.5
58,2020-03-30T00:57:00,0.8,北,2.1,北,6.2,73.3,0,0,0,18.5
59,2020-03-30T00:58:00,0.8,北,2.1,北,6.1,74.5,0,0,0,18.5
60,2020-03-30T00:59:00,0.9,北北西,2.1,北,6.1,74.6,0,0,0,18.5
61,2020-03-30T01:00:00,0.9,北北西,2.1,北,6.3,72.1,0,0,0,18.5
62,2020-03-30T01:01:00,0.9,北北西,2.1,北,6.3,72.4,0,0,0,18.5
63,2020-03-30T01:02:00,1,北北西,2.1,北,6.3,74.4,0,0,0,18.5
64,2020-03-30T01:03:00,1,北北西,2.1,北,6.2,74.7,0,0,0,18.5
65,2020-03-30T01:04:00,1,北北西,2.1,北,6.2,75,0,0,0,18.5
66,2020-03-30T01:05:00,1.1,北北西,2.1,北,6.1,75.4,0,0,0,18.5
67,2020-03-30T01:06:00,1,北北西,2,北,6.1,75.7,0,0,0,18.5
68,2020-03-30T01:07:00,1,北北西,2,北,6.2,76.1,0,0,0,18.5
69,2020-03-30T01:08:00,1,北北西,2.5,北北東,6.2,76.6,0,0,0,18.5
70,2020-03-30T01:09:00,1.1,北,2.9,北北西,6.1,76.8,0,0,0,18.5
71,2020-03-30T01:10:00,1.2,北,2.9,北北西,6,77.2,0,0,0,18.5
72,2020-03-30T01:11:00,1.3,北,2.9,北北西,6,77.9,0,0,0,18.5
73,2020-03-30T01:12:00,1.3,北,2.9,北北西,6,77.8,0,0,0,18.5
74,2020-03-30T01:13:00,1.3,北,2.9,北北西,6,77.9,0,0,0,18.5
75,2020-03-30T01:14:00,1.3,北,2.9,北北西,6,78.4,0,0,0,18.5
76,2020-03-30T01:15:00,1.3,北,2.9,北北西,6,78.2,0,0,0,18.5
77,2020-03-30T01:16:00,1.3,北,2.9,北北西,6,78.4,0,0,0,18.5
78,2020-03-30T01:17:00,1.2,北,2.9,北北西,6,78.3,0,0,0,18.5
79,2020-03-30T01:18:00,1.2,北,2.9,北北西,6,78.2,0,0,0,18.5
80,2020-03-30T01:19:00,1.1,北,2.3,北北西,6,77.9,0,0,0,18.5
81,2020-03-30T01:20:00,1.1,北,1.9,北北西,6,78,0,0,0,18.5
82,2020-03-30T01:21:00,1.1,北,1.9,北北西,6.1,78.2,0,0,0,18.5
83,2020-03-30T01:22:00,1,北,1.8,北北西,6,78.3,0,0,0,18.5
84,2020-03-30T01:23:00,1,北,1.8,北北西,6,78.1,0,0,0,18.5
85,2020-03-30T01:24:00,0.9,北,1.8,北北西,6.1,77.9,0,0,0,18.5
86,2020-03-30T01:25:00,0.9,北,1.7,北,6.1,77.3,0,0,0,18.5
87,2020-03-30T01:26:00,1,北,2.2,北,6,77.1,0,0,0,18.5
88,2020-03-30T01:27:00,1,北,2.2,北,6.1,77.5,0,0,0,18.5
89,2020-03-30T01:28:00,1.1,北,2.2,北,6.1,78,0,0,0,18.5
90,2020-03-30T01:29:00,1.1,北,2.2,北,6.1,77.6,0,0,0,18.5
91,2020-03-30T01:30:00,1.1,北,2.2,北,6.1,77.6,0,0,0,18.5
92,2020-03-30T01:31:00,1.1,北,2.3,北北西,6,77.8,0,0,0,18.5
93,2020-03-30T01:32:00,1.2,北北西,2.3,北北西,6,78.1,0,0,0,18.5
94,2020-03-30T01:33:00,1.2,北北西,2.3,北北西,6,78.6,0,0,0,18.5
95,2020-03-30T01:34:00,1.2,北北西,2.3,北北西,6.1,78.8,0,0,0,18.5
96,2020-03-30T01:35:00,1.3,北,2.3,北北西,6,78.7,0,0,0,18.5
97,2020-03-30T01:36:00,1.2,北,2.3,北北西,6,78.4,0,0,0,18.5
98,2020-03-30T01:37:00,1.1,北北西,2.3,北北西,6,78.3,0,0,0,18.5
99,2020-03-30T01:38:00,1,北北西,2.3,北北西,5.9,78.5,0,0,0,18.5
100,2020-03-30T01:39:00,0.9,北北西,2.3,北北西,5.9,77.8,0,0,0,18.5
101,2020-03-30T01:40:00,0.9,北北西,2.3,北北西,5.9,77.8,0,0,0,18.5
102,2020-03-30T01:41:00,0.8,北北西,1.6,北北西,5.9,78.1,0,0,0,18.5
103,2020-03-30T01:42:00,0.7,北北西,1.6,北北西,5.9,78.5,0,0,0,18.5
104,2020-03-30T01:43:00,0.6,北北西,1.6,北北西,6,78.3,0,0,0,18.5
105,2020-03-30T01:44:00,0.6,北北西,1.6,北北西,6,77.6,0,0,0,18.5
106,2020-03-30T01:45:00,0.6,北北西,1.4,北西,5.9,77.8,0,0,0,18.5
107,2020-03-30T01:46:00,0.6,北西,1.4,北西,6,78.2,0,0,0,18.5
108,2020-03-30T01:47:00,0.5,北西,1,西,5.9,78.2,0,0,0,18.5
109,2020-03-30T01:48:00,0.5,北西,1,西,5.9,78.4,0,0,0,18.5
110,2020-03-30T01:49:00,0.5,西北西,1,西,5.9,78.5,0,0,0,18.5
111,2020-03-30T01:50:00,0.5,西北西,1,西,5.9,78.3,0,0,0,18.5
112,2020-03-30T01:51:00,0.6,西,1,西,5.9,78.3,0,0,0,18.5
113,2020-03-30T01:52:00,0.6,西,1,西,5.9,78.2,0,0,0,18.5
114,2020-03-30T01:53:00,0.6,西,1,西,6,78,0,0,0,18.5
115,2020-03-30T01:54:00,0.6,西,1,西,6,78.1,0,0,0,18.5
116,2020-03-30T01:55:00,0.6,西,1,西,6,78,0,0,0,18.5
117,2020-03-30T01:56:00,0.7,西,1,西,6,77.7,0,0,0,18.5
118,2020-03-30T01:57:00,0.6,西,1,北北西,6.1,77.6,0,0,0,18.5
119,2020-03-30T01:58:00,0.5,西北西,1,北北西,6.2,78,0,0,0,18.5
120,2020-03-30T01:59:00,0.5,西北西,1,北北西,6.3,78,0,0,0,18.5
121,2020-03-30T02:00:00,0.5,北西,1,北北西,6.2,77.4,0,0,0,18.5
122,2020-03-30T02:01:00,0.4,北西,1,北北西,6.1,77.3,0,0,0,18.5
123,2020-03-30T02:02:00,0.3,北西,1,北北西,6.1,77.7,0,0,0,18.5
124,2020-03-30T02:03:00,0.3,北北西,1,北北西,6.1,77.7,0,0,0,18.5
125,2020-03-30T02:04:00,0.3,北北西,1,北北西,6,77.6,0,0,0,18.5
126,2020-03-30T02:05:00,0.3,北北西,1,北北西,6,78,0,0,0,18.5
127,2020-03-30T02:06:00,0.3,北北西,1,北北西,6,78.4,0,0,0,18.5
128,2020-03-30T02:07:00,0.4,北北西,1.1,西北西,5.9,78.5,0,0,0,18.5
129,2020-03-30T02:08:00,0.4,北西,1.1,西北西,5.9,78.8,0,0,0,18.5
130,2020-03-30T02:09:00,0.4,北西,1.1,西北西,6,79.1,0,0,0,18.5
131,2020-03-30T02:10:00,0.5,北西,1.1,西北西,6,79.4,0,0,0,18.5
132,2020-03-30T02:11:00,0.5,北西,1.1,西北西,6,79.8,0,0,0,18.5
133,2020-03-30T02:12:00,0.6,北西,1.1,西北西,6,79.2,0,0,0,18.5
134,2020-03-30T02:13:00,0.6,西北西,1.1,西北西,6,78.8,0,0,0,18.5
135,2020-03-30T02:14:00,0.7,西北西,1.1,西北西,5.9,79.4,0,0,0,18.5
136,2020-03-30T02:15:00,0.7,西北西,1.3,北西,5.9,79.9,0,0,0,18.5
137,2020-03-30T02:16:00,0.7,西北西,1.3,北西,5.9,79.5,0,0,0,18.5
138,2020-03-30T02:17:00,0.7,北西,1.5,北西,5.9,79.9,0,0,0,18.5
139,2020-03-30T02:18:00,0.8,北西,2.1,西北西,5.9,79.2,0,0,0,18.5
140,2020-03-30T02:19:00,0.9,北西,2.1,西北西,5.9,78.9,0,0,0,18.5
141,2020-03-30T02:20:00,0.9,北西,2.1,西北西,5.9,79.1,0,0,0,18.5
142,2020-03-30T02:21:00,0.9,北西,2.1,西北西,5.9,79.4,0,0,0,18.5
143,2020-03-30T02:22:00,1,北西,2.1,西北西,5.9,79.5,0,0,0,18.5
144,2020-03-30T02:23:00,1,北西,2.1,西北西,5.9,79.3,0,0,0,18.5
145,2020-03-30T02:24:00,1,北西,2.1,西北西,5.9,79.2,0,0,0,18.5
146,2020-03-30T02:25:00,1,北西,2.1,西北西,5.9,79.5,0,0,0,18.5
147,2020-03-30T02:26:00,1,北西,2.1,西北西,5.9,79.3,0,0,0,18.5
148,2020-03-30T02:27:00,1.1,北西,2.1,西北西,5.8,79.5,0,0,0,18.5
149,2020-03-30T02:28:00,1,北西,1.6,西北西,5.8,80.1,0,0,0,18.5
150,2020-03-30T02:29:00,1,北西,1.6,西北西,5.8,80.2,0,0,0,18.5
151,2020-03-30T02:30:00,1,北西,1.6,西北西,5.8,80.5,0,0,0,18.5
152,2020-03-30T02:31:00,1,北西,1.6,西北西,5.8,80.4,0,0,0,18.5
153,2020-03-30T02:32:00,1,北西,1.6,西北西,5.7,80.5,0,0,0,18.5
154,2020-03-30T02:33:00,1,北西,1.6,西北西,5.8,80.6,0,0,0,18.5
155,2020-03-30T02:34:00,1,北西,1.6,西北西,5.8,80.5,0,0,0,18.5
156,2020-03-30T02:35:00,0.9,北西,1.6,西北西,5.8,80.5,0,0,0,18.5
157,2020-03-30T02:36:00,0.9,北西,1.4,北西,5.8,80.8,0,0,0,18.5
158,2020-03-30T02:37:00,0.8,北西,1.5,西北西,5.8,80.7,0,0,0,18.5
159,2020-03-30T02:38:00,0.9,北西,1.9,西北西,5.8,80.7,0,0,0,18.5
160,2020-03-30T02:39:00,0.9,北西,1.9,西北西,5.8,80.9,0,0,0,18.5
161,2020-03-30T02:40:00,1,北西,1.9,西北西,5.8,80.9,0,0,0,18.5
162,2020-03-30T02:41:00,1,北西,1.9,西北西,5.8,80.4,0,0,0,18.5
163,2020-03-30T02:42:00,0.9,北西,1.9,西北西,5.8,80.1,0,0,0,18.5
164,2020-03-30T02:43:00,0.9,北西,1.9,西北西,5.8,79.6,0,0,0,18.5
165,2020-03-30T02:44:00,0.9,北西,1.9,西北西,5.8,79.3,0,0,0,18.5
166,2020-03-30T02:45:00,0.9,北西,1.9,西北西,5.8,79.2,0,0,0,18.5
167,2020-03-30T02:46:00,0.8,北西,1.9,西北西,5.8,79.3,0,0,0,18.5
168,2020-03-30T02:47:00,0.8,北西,1.9,西北西,5.8,79.2,0,0,0,18.5
169,2020-03-30T02:48:00,0.8,北西,1.7,西北西,5.8,79.1,0,0,0,18.5
170,2020-03-30T02:49:00,0.8,北西,1.6,西北西,5.8,79.3,0,0,0,18.5
171,2020-03-30T02:50:00,0.7,北西,1.1,北西,5.8,79.8,0,0,0,18.5
172,2020-03-30T02:51:00,0.7,北西,1.1,北西,5.8,80,0,0,0,18.5
173,2020-03-30T02:52:00,0.8,北西,1.1,北西,5.8,80.1,0,0,0,18.5
174,2020-03-30T02:53:00,0.8,北西,1.5,北北西,5.7,80.5,0,0,0,18.5
175,2020-03-30T02:54:00,0.8,北西,1.5,北北西,5.7,80.8,0,0,0,18.5
176,2020-03-30T02:55:00,0.9,北北西,1.5,北北西,5.7,81.1,0,0,0,18.5
177,2020-03-30T02:56:00,0.9,北北西,1.5,北北西,5.7,81.4,0,0,0,18.5
178,2020-03-30T02:57:00,0.9,北北西,1.5,北北西,5.7,81.4,0,0,0,18.5
179,2020-03-30T02:58:00,0.9,北西,1.5,北北西,5.7,81,0,0,0,18.5
180,2020-03-30T02:59:00,0.9,北西,1.5,北北西,5.7,80.8,0,0,0,18.5
181,2020-03-30T03:00:00,0.9,北西,1.5,北北西,5.8,80.1,0,0,0,18.5
182,2020-03-30T03:01:00,0.9,北西,1.5,北北西,5.8,79.5,0,0,0,18.5
183,2020-03-30T03:02:00,0.9,北西,1.5,北北西,5.8,79.4,0,0,0,18.5
184,2020-03-30T03:03:00,0.9,北西,1.3,西北西,5.8,79.6,0,0,0,18.5
185,2020-03-30T03:04:00,0.9,北西,1.3,西北西,5.8,79.5,0,0,0,18.5
186,2020-03-30T03:05:00,0.9,北西,1.4,北西,5.7,80.3,0,0,0,18.5
187,2020-03-30T03:06:00,1,北西,1.5,北北西,5.7,81.1,0,0,0,18.5
188,2020-03-30T03:07:00,1,北西,1.5,北北西,5.7,81.7,0,0,0,18.5
189,2020-03-30T03:08:00,1.1,北西,1.8,北北西,5.7,82.1,0,0,0,18.5
190,2020-03-30T03:09:00,1.1,北西,1.8,北北西,5.8,82.1,0,0,0,18.5
191,2020-03-30T03:10:00,1.1,北西,1.8,北北西,5.7,81.9,0,0,0,18.5
192,2020-03-30T03:11:00,1.1,北西,1.8,北北西,5.6,81.5,0,0,0,18.5
193,2020-03-30T03:12:00,1.1,北西,1.8,北北西,5.6,81.3,0,0,0,18.5
194,2020-03-30T03:13:00,1.1,北北西,1.8,北北西,5.6,80.9,0,0,0,18.5
195,2020-03-30T03:14:00,1.1,北北西,1.8,北北西,5.7,80.8,0,0,0,18.5
196,2020-03-30T03:15:00,1.1,北北西,1.8,北北西,5.6,81,0,0,0,18.5
197,2020-03-30T03:16:00,1.1,北西,1.8,北北西,5.6,81.3,0,0,0,18.5
198,2020-03-30T03:17:00,1,北西,1.8,北北西,5.6,82.1,0,0,0,18.5
199,2020-03-30T03:18:00,1.1,北西,1.6,北北西,5.6,82.2,0,0,0,18.5
200,2020-03-30T03:19:00,1,北西,1.5,北西,5.6,82.7,0,0,0,18.5
201,2020-03-30T03:20:00,1,北西,1.5,北西,5.6,82.8,0,0,0,18.5
202,2020-03-30T03:21:00,1,北西,1.5,北西,5.6,82.8,0,0,0,18.5
203,2020-03-30T03:22:00,1,北西,1.5,北西,5.6,83.3,0,0,0,18.5
204,2020-03-30T03:23:00,1.1,北西,1.5,北西,5.6,83.3,0,0,0,18.5
205,2020-03-30T03:24:00,1,北西,1.6,北西,5.6,83.2,0,0,0,18.5
206,2020-03-30T03:25:00,1,北西,1.6,北西,5.7,83.3,0,0,0,18.5
207,2020-03-30T03:26:00,1.1,北西,2.4,西北西,5.7,82.6,0,0,0,18.5
208,2020-03-30T03:27:00,1.1,北西,2.6,西北西,5.7,82,0,0,0,18.5
209,2020-03-30T03:28:00,1.1,北西,2.6,西北西,5.7,81.9,0,0,0,18.5
210,2020-03-30T03:29:00,1.2,北西,2.6,西北西,5.7,82,0,0,0,18.5
211,2020-03-30T03:30:00,1.2,北西,2.6,西北西,5.7,82.1,0,0,0,18.5
212,2020-03-30T03:31:00,1.2,北西,2.6,西北西,5.7,82.2,0,0,0,18.5
213,2020-03-30T03:32:00,1.2,北西,2.6,西北西,5.8,81.6,0,0,0,18.5
214,2020-03-30T03:33:00,1.2,北北西,2.6,西北西,5.8,81.1,0,0,0,18.5
215,2020-03-30T03:34:00,1.1,北北西,2.6,西北西,5.8,81.1,0,0,0,18.5
216,2020-03-30T03:35:00,1.2,北西,2.6,西北西,5.7,81.2,0,0,0,18.5
217,2020-03-30T03:36:00,1.1,北西,2.6,西北西,5.7,81.7,0,0,0,18.5
218,2020-03-30T03:37:00,1.1,北西,2.3,西北西,5.6,82,0,0,0,18.5
219,2020-03-30T03:38:00,1,北西,2.3,西北西,5.6,82.5,0,0,0,18.5
220,2020-03-30T03:39:00,1,北西,1.7,西,5.6,82.9,0,0,0,18.5
221,2020-03-30T03:40:00,1,北西,1.6,北西,5.6,82.6,0,0,0,18.5
222,2020-03-30T03:41:00,1.1,北西,1.6,北西,5.6,82.4,0,0,0,18.5
223,2020-03-30T03:42:00,1.1,北西,1.6,北西,5.6,82.4,0,0,0,18.5
224,2020-03-30T03:43:00,1.1,北西,1.6,北西,5.6,82.5,0,0,0,18.5
225,2020-03-30T03:44:00,1.2,西北西,1.6,北西,5.6,82.2,0,0,0,18.5
226,2020-03-30T03:45:00,1.2,西北西,1.7,西,5.7,81.7,0,0,0,18.5
227,2020-03-30T03:46:00,1.2,西北西,1.7,西,5.7,81.3,0,0,0,18.5
228,2020-03-30T03:47:00,1.2,西北西,1.7,西,5.7,81.4,0,0,0,18.5
229,2020-03-30T03:48:00,1.2,西北西,1.7,西,5.7,81.5,0,0,0,18.5
230,2020-03-30T03:49:00,1.3,西北西,1.9,西北西,5.7,81.1,0,0,0,18.5
231,2020-03-30T03:50:00,1.3,西北西,1.9,西北西,5.7,80.6,0,0,0,18.5
232,2020-03-30T03:51:00,1.3,西北西,1.9,西北西,5.7,80,0,0,0,18.5
233,2020-03-30T03:52:00,1.3,西北西,1.9,西北西,5.7,79.8,0,0,0,18.5
234,2020-03-30T03:53:00,1.3,西北西,1.9,西北西,5.7,79.9,0,0,0,18.5
235,2020-03-30T03:54:00,1.3,西北西,1.9,西北西,5.7,79.6,0,0,0,18.5
236,2020-03-30T03:55:00,1.3,西北西,1.9,西北西,5.7,79.3,0,0,0,18.5
237,2020-03-30T03:56:00,1.4,北西,2,北北西,5.7,80.1,0,0,0,18.5
238,2020-03-30T03:57:00,1.4,北西,2,北北西,5.7,80.7,0,0,0,18.5
239,2020-03-30T03:58:00,1.4,北西,2,北北西,5.7,80.6,0,0,0,18.5
240,2020-03-30T03:59:00,1.4,北西,2,北北西,5.7,80.1,0,0,0,18.5
241,2020-03-30T04:00:00,1.4,北西,2,北北西,5.7,79.7,0,0,0,18.5
242,2020-03-30T04:01:00,1.4,北西,2,北北西,5.7,80.2,0,0,0,18.5
243,2020-03-30T04:02:00,1.4,北西,2,北北西,5.7,79.9,0,0,0,18.5
244,2020-03-30T04:03:00,1.4,北西,2,北北西,5.7,79.2,0,0,0,18.5
245,2020-03-30T04:04:00,1.4,北西,2,北北西,5.7,79.3,0,0,0,18.5
246,2020-03-30T04:05:00,1.5,北西,2,北北西,5.7,79.5,0,0,0,18.5
247,2020-03-30T04:06:00,1.4,北西,1.9,北西,5.7,79.6,0,0,0,18.5
248,2020-03-30T04:07:00,1.3,北西,1.9,北西,5.8,78.6,0,0,0,18.5
249,2020-03-30T04:08:00,1.3,西北西,1.9,北西,5.8,78.3,0,0,0,18.5
250,2020-03-30T04:09:00,1.3,西北西,1.9,北西,5.8,78.2,0,0,0,18.5
251,2020-03-30T04:10:00,1.2,西北西,1.9,北西,5.7,78.3,0,0,0,18.5
252,2020-03-30T04:11:00,1.2,西北西,1.9,北西,5.7,78.9,0,0,0,18.5
253,2020-03-30T04:12:00,1.2,西北西,1.9,北西,5.7,78.8,0,0,0,0
254,2020-03-30T04:13:00,1.2,西北西,1.9,北西,5.7,78.7,0,0,0,0
255,2020-03-30T04:14:00,1.2,西北西,1.8,西北西,5.7,78.2,0,0,0,0
256,2020-03-30T04:15:00,1.2,西北西,1.8,西北西,5.8,77.9,0,0,0,0
257,2020-03-30T04:16:00,1.2,北西,1.8,西北西,5.8,77,0,0,0,0
258,2020-03-30T04:17:00,1.2,北西,1.8,西北西,5.8,77,0,0,0,0
259,2020-03-30T04:18:00,1.2,西北西,1.8,西北西,5.8,77.6,0,0,0,0
260,2020-03-30T04:19:00,1.2,西北西,1.8,西北西,5.8,77.6,0,0,0,0
261,2020-03-30T04:20:00,1.2,西北西,1.8,西北西,5.8,78.1,0,0,0,0
262,2020-03-30T04:21:00,1.2,西北西,1.8,西北西,5.8,78,0,0,0,0
263,2020-03-30T04:22:00,1.1,西北西,1.8,西北西,5.7,78.9,0,0,0,0
264,2020-03-30T04:23:00,1.1,西北西,1.7,西北西,5.7,80.3,0,0,0,0
265,2020-03-30T04:24:00,1.1,西北西,1.8,西,5.7,81.6,0,0,0,0
266,2020-03-30T04:25:00,1.1,西,1.8,西,5.6,82.2,0,0,0,0
267,2020-03-30T04:26:00,1.1,西,1.8,西,5.6,82.8,0,0,0,0
268,2020-03-30T04:27:00,1.1,西,1.8,西,5.6,82.8,0,0,0,0
269,2020-03-30T04:28:00,1.1,西,1.8,西,5.6,83.1,0,0,0,0
270,2020-03-30T04:29:00,1.2,西,1.9,西,5.6,83.2,0,0,0,0
271,2020-03-30T04:30:00,1.2,西,1.9,西,5.6,83.1,0,0,0,0
272,2020-03-30T04:31:00,1.2,西,1.9,西,5.6,82.8,0,0,0,0
273,2020-03-30T04:32:00,1.3,西,1.9,西,5.6,82.3,0,0,0,0
274,2020-03-30T04:33:00,1.4,西,2,西,5.6,82.1,0,0,0,0
275,2020-03-30T04:34:00,1.5,西,2.6,西北西,5.6,82.3,0,0,0,0
276,2020-03-30T04:35:00,1.5,西,2.6,西北西,5.6,82.4,0,0,0,0
277,2020-03-30T04:36:00,1.6,西,2.6,西北西,5.6,82.5,0,0,0,0
278,2020-03-30T04:37:00,1.7,西北西,2.6,西北西,5.6,81.9,0,0,0,0
279,2020-03-30T04:38:00,1.8,西北西,2.6,西北西,5.7,80.7,0,0,0,0
280,2020-03-30T04:39:00,1.8,西北西,2.6,西北西,5.7,80.4,0,0,0,0
281,2020-03-30T04:40:00,1.9,西北西,3.3,西北西,5.7,80.9,0,0,0,0
282,2020-03-30T04:41:00,2,西北西,3.3,西北西,5.7,81.8,0,0,0,0
283,2020-03-30T04:42:00,2.2,西北西,4,北西,5.6,82.7,0,0,0,0
284,2020-03-30T04:43:00,2.3,西北西,4.2,西北西,5.6,83,0,0,0,0
285,2020-03-30T04:44:00,2.4,西北西,4.2,西北西,5.6,82.8,0,0,0,0
286,2020-03-30T04:45:00,2.3,西北西,4.2,西北西,5.6,82.7,0,0,0,0
287,2020-03-30T04:46:00,2.4,西北西,4.2,西北西,5.6,82.3,0,0,0,0
288,2020-03-30T04:47:00,2.4,西北西,4.2,西北西,5.7,81.8,0,0,0,0
289,2020-03-30T04:48:00,2.4,西北西,4.2,西北西,5.7,81.4,0,0,0,0
290,2020-03-30T04:49:00,2.3,西北西,4.2,西北西,5.7,81,0,0,0,0
291,2020-03-30T04:50:00,2.3,西北西,4.2,西北西,5.7,80.1,0,0,0,0
292,2020-03-30T04:51:00,2.3,西北西,4.2,西北西,5.7,80,0,0,0,0
293,2020-03-30T04:52:00,2.1,西北西,4.2,西北西,5.7,80.5,0,0,0,0
294,2020-03-30T04:53:00,1.9,西北西,3.5,西北西,5.7,80.1,0,0,0,0
295,2020-03-30T04:54:00,1.6,西北西,3.1,西北西,5.8,79.7,0,0,0,0
296,2020-03-30T04:55:00,1.5,西北西,3.1,西北西,5.7,79.2,0,0,0,0
297,2020-03-30T04:56:00,1.4,北西,3.1,西北西,5.7,79.1,0,0,0,0
298,2020-03-30T04:57:00,1.3,北西,2.5,西北西,5.7,79.4,0,0,0,0
299,2020-03-30T04:58:00,1.1,北西,2.5,西北西,5.7,79.5,0,0,0,0
300,2020-03-30T04:59:00,1,北西,2.4,西北西,5.7,79.6,0,0,0,0
301,2020-03-30T05:00:00,0.9,北西,2.2,北西,5.6,79.7,0,0,0,0
302,2020-03-30T05:01:00,0.8,北西,1.8,西北西,5.7,80.1,0,0,0,0
303,2020-03-30T05:02:00,0.7,北西,1.2,北,5.7,80.2,0,0,0,0
304,2020-03-30T05:03:00,0.7,北西,1.2,北,5.7,79.8,0,0,0,0
305,2020-03-30T05:04:00,0.7,北西,1.2,北,5.7,79.3,0,0,0,0
306,2020-03-30T05:05:00,0.7,北西,1,北西,5.7,79.3,0,0,0,0
307,2020-03-30T05:06:00,0.6,北西,1,北西,5.7,78.8,0,0,0,0
308,2020-03-30T05:07:00,0.6,北西,1,北西,5.7,78.6,0,0,0,0
309,2020-03-30T05:08:00,0.6,西北西,1,北西,5.7,78.7,0,0,0,0
310,2020-03-30T05:09:00,0.5,西北西,0.8,北西,5.7,79,0,0,0,0
311,2020-03-30T05:10:00,0.5,西北西,0.8,北西,5.7,79,0,0,0,0
312,2020-03-30T05:11:00,0.5,西北西,0.9,西,5.7,79.2,0,0,0,0
313,2020-03-30T05:12:00,0.6,西北西,1,西,5.7,79,0,0,0,0
314,2020-03-30T05:13:00,0.6,西北西,1.1,西,5.7,79,0,0,0,0
315,2020-03-30T05:14:00,0.7,西北西,1.4,西北西,5.7,79.5,0,0,0,0
316,2020-03-30T05:15:00,0.7,西北西,1.4,西北西,5.7,79.7,0,0,0,0
317,2020-03-30T05:16:00,0.7,西,1.4,西北西,5.7,79.4,0,0,0,0
318,2020-03-30T05:17:00,0.7,西北西,1.4,西北西,5.7,78.9,0,0,0,0
319,2020-03-30T05:18:00,0.7,西北西,1.4,西北西,5.7,79.2,0,0,0,0
320,2020-03-30T05:19:00,0.8,西北西,1.4,西北西,5.6,79.8,0,0,0,0
321,2020-03-30T05:20:00,0.9,西北西,1.4,西北西,5.6,79.9,0,0,0,0
322,2020-03-30T05:21:00,0.9,西北西,1.5,北西,5.5,80.3,0,0,0,0
323,2020-03-30T05:22:00,1,北西,1.6,北北西,5.5,80.6,0,0,0,0
324,2020-03-30T05:23:00,1,北西,1.6,北北西,5.5,81.3,0,0,0,0
325,2020-03-30T05:24:00,0.9,北西,1.6,北北西,5.6,81.9,0,0,0,0
326,2020-03-30T05:25:00,0.8,北西,1.6,北北西,5.6,81.7,0,0,0,0
327,2020-03-30T05:26:00,0.9,北西,1.6,北北西,5.5,81.7,0,0,0,0
328,2020-03-30T05:27:00,1,北西,2.4,西北西,5.5,82,0,0,0,0
329,2020-03-30T05:28:00,1.2,北西,2.5,北西,5.5,82.4,0,0,0,0
330,2020-03-30T05:29:00,1.2,北西,2.5,北西,5.5,82.9,0,0,0,0
331,2020-03-30T05:30:00,1.2,北西,2.5,北西,5.4,83.3,0,0,0,0
332,2020-03-30T05:31:00,1.1,北西,2.5,北西,5.4,83.6,0,0,0,0
333,2020-03-30T05:32:00,1.1,北西,2.5,北西,5.5,83.8,0,0,0,0
334,2020-03-30T05:33:00,1.1,西北西,2.5,北西,5.5,83.8,0,0,0,0
335,2020-03-30T05:34:00,1.1,西北西,2.5,北西,5.4,83.8,0,0,0,0
336,2020-03-30T05:35:00,1.1,西北西,2.5,北西,5.5,83.9,0,0,0,0
337,2020-03-30T05:36:00,1.1,西北西,2.5,北西,5.4,83.4,0,0,0,0
338,2020-03-30T05:37:00,1,西北西,2.5,北西,5.4,82.4,0,0,0,0
339,2020-03-30T05:38:00,0.9,西北西,2,北西,5.5,82.2,0,0,0,0
340,2020-03-30T05:39:00,0.8,西北西,1.5,北西,5.5,82,0,0,0,0
341,2020-03-30T05:40:00,0.8,西北西,1.4,北北西,5.6,81.7,0,0,0,0
342,2020-03-30T05:41:00,0.7,北西,1.4,北北西,5.6,81.9,0,0,0,0
343,2020-03-30T05:42:00,0.8,北西,1.6,西北西,5.6,81.7,0,0,0,0
344,2020-03-30T05:43:00,0.8,北西,1.6,西北西,5.5,81.6,0,0,0,0
345,2020-03-30T05:44:00,0.8,北西,1.6,西北西,5.5,81.7,0,0,0,0
346,2020-03-30T05:45:00,0.9,北西,1.8,西北西,5.5,81.8,0,0,0,0
347,2020-03-30T05:46:00,0.9,西北西,1.8,西北西,5.6,81.6,0,0,0,0
348,2020-03-30T05:47:00,0.8,西北西,1.8,西北西,5.6,81.2,0,0,0,0
349,2020-03-30T05:48:00,0.8,西北西,1.8,西北西,5.6,81.3,0,0,0,0
350,2020-03-30T05:49:00,0.9,西北西,1.8,西北西,5.5,81.6,0,0,0,0
351,2020-03-30T05:50:00,0.9,西北西,1.8,西北西,5.5,82,0,0,0,0
352,2020-03-30T05:51:00,1,西,1.8,西北西,5.5,82.5,0,0,0,0
353,2020-03-30T05:52:00,1,西,1.8,西北西,5.4,83.7,0,0,0,0
354,2020-03-30T05:53:00,1,西,1.8,西北西,5.4,84.3,0,0,0,0
355,2020-03-30T05:54:00,1,西,2,西北西,5.4,84.3,0,0,0,0
356,2020-03-30T05:55:00,1,西,2,西北西,5.5,83.6,0,0,0,0
357,2020-03-30T05:56:00,1.1,西,2.6,西,5.5,83.2,0,0,0,0
358,2020-03-30T05:57:00,1.2,西,2.6,西,5.5,83.4,0,0,0,0
359,2020-03-30T05:58:00,1.3,西,2.6,西,5.5,83.5,0,0,0,0
360,2020-03-30T05:59:00,1.4,西,2.7,西北西,5.5,83.4,0,0,0,0
361,2020-03-30T06:00:00,1.5,西,2.9,西北西,5.4,83.7,0,0,0,0
362,2020-03-30T06:01:00,1.7,西,3.3,西北西,5.4,84,0,0,0,0
363,2020-03-30T06:02:00,1.7,西北西,3.3,西北西,5.4,84.4,0,0,0,0
364,2020-03-30T06:03:00,1.8,西北西,3.3,西北西,5.3,84.7,0,0,0,0
365,2020-03-30T06:04:00,1.8,西北西,3.3,西北西,5.4,85.1,0,0,0,0
366,2020-03-30T06:05:00,1.9,西北西,3.3,西北西,5.3,85.3,0,0,0,0
367,2020-03-30T06:06:00,1.9,西北西,3.3,西北西,5.4,85.4,0,0,0,0
368,2020-03-30T06:07:00,1.9,西北西,3.3,西北西,5.4,85.5,0,0,0,0
369,2020-03-30T06:08:00,1.7,西北西,3.3,西北西,5.4,85.4,0,0,0,0
370,2020-03-30T06:09:00,1.7,西北西,3.3,西北西,5.4,85.2,0,0,0,0
371,2020-03-30T06:10:00,1.6,西北西,3.3,西北西,5.4,85.2,0,0,0,0
372,2020-03-30T06:11:00,1.4,西北西,2.8,西北西,5.4,85.2,0,0,0,0
373,2020-03-30T06:12:00,1.3,西北西,2.8,西北西,5.4,84.7,0,0,0,0
374,2020-03-30T06:13:00,1.2,西,2.8,西北西,5.4,84.3,0,0,0,0
375,2020-03-30T06:14:00,1.2,西,2.8,西北西,5.5,84,0,0,0,0
376,2020-03-30T06:15:00,1.1,西,2.8,西北西,5.4,83.5,0,0,0,0
377,2020-03-30T06:16:00,1,西,2,西北西,5.4,84.1,0,0,0,0
378,2020-03-30T06:17:00,1,西,2,西北西,5.4,84.8,0,0,0,0
379,2020-03-30T06:18:00,1,西,2,西北西,5.4,85.5,0,0,0,0
380,2020-03-30T06:19:00,0.9,西北西,1.7,西,5.5,86,0,0,0,0
381,2020-03-30T06:20:00,0.9,西北西,1.7,西,5.4,85.4,0,0,0,0
382,2020-03-30T06:21:00,0.9,北西,1.7,西,5.4,85,0,0,0,0
383,2020-03-30T06:22:00,0.9,北西,1.7,西,5.3,85.3,0,0,0,0
384,2020-03-30T06:23:00,0.9,北西,1.7,西,5.3,85.1,0,0,0,0
385,2020-03-30T06:24:00,0.8,北北西,1.7,西,5.3,85.1,0,0,0,0
386,2020-03-30T06:25:00,0.7,北北西,1.4,北,5.4,85.3,0,0,0,0
387,2020-03-30T06:26:00,0.6,北北西,1.4,北,5.5,85.8,0,0,0,0
388,2020-03-30T06:27:00,0.6,北,1.4,北,5.5,85.4,0,0,0,0
389,2020-03-30T06:28:00,0.6,北,1.4,北,5.5,85.1,0,0,0,0
390,2020-03-30T06:29:00,0.6,北北東,1.4,北,5.5,84.8,0,0,0,0
391,2020-03-30T06:30:00,0.5,北北東,1.4,東,5.5,84.6,0,0,0,0
392,2020-03-30T06:31:00,0.5,北東,1.4,東,5.6,84.7,0,0,0,0
393,2020-03-30T06:32:00,0.4,東北東,1.4,東,5.6,84.3,0,0,0,0
394,2020-03-30T06:33:00,0.4,東北東,1.4,東,5.6,84.4,0,0,0,0
395,2020-03-30T06:34:00,0.4,東,1.4,東,5.5,84.2,0,0,0,0
396,2020-03-30T06:35:00,0.4,東,1.4,東,5.6,84.5,0,0,0,0
397,2020-03-30T06:36:00,0.3,東,1.4,東,5.5,84.5,0,0,0,0
398,2020-03-30T06:37:00,0.3,東南東,0.8,東南東,5.6,84.9,0,0,0,0
399,2020-03-30T06:38:00,0.2,静穏,0.8,東南東,5.5,84.9,0,0,0,0
400,2020-03-30T06:39:00,0.2,静穏,0.6,東,5.5,84.4,0,0,0,0
401,2020-03-30T06:40:00,0.3,東南東,1.3,北北西,5.5,84.6,0,0,0,0
402,2020-03-30T06:41:00,0.4,東,1.4,北西,5.5,84.9,0,0,0,0
403,2020-03-30T06:42:00,0.4,北東,1.4,北西,5.5,85,0,0,0,0
404,2020-03-30T06:43:00,0.5,北北西,1.4,北西,5.4,85,0,0,0,0
405,2020-03-30T06:44:00,0.6,北西,1.4,北西,5.4,85,0,0,0,0
406,2020-03-30T06:45:00,0.7,北西,1.4,北西,5.4,85.1,0,0,0,0
407,2020-03-30T06:46:00,0.7,北西,1.4,北西,5.3,84.9,0,0,0,0
408,2020-03-30T06:47:00,0.8,北西,1.4,北西,5.4,85,0,0,0,0
409,2020-03-30T06:48:00,0.8,北西,1.4,北西,5.4,85.1,0,0,0,0
410,2020-03-30T06:49:00,0.8,北西,1.4,北西,5.4,85.2,0,0,0,0
411,2020-03-30T06:50:00,0.8,北北西,1.4,北西,5.5,85,0,0,0,0
412,2020-03-30T06:51:00,0.8,北北西,1.3,北北西,5.4,84.9,0,0,0,0
413,2020-03-30T06:52:00,0.7,北北西,1.3,北北西,5.4,84.7,0,0,0,0
414,2020-03-30T06:53:00,0.7,北北西,1,北北西,5.4,84.7,0,0,0,0
415,2020-03-30T06:54:00,0.7,北北西,1,北北西,5.4,84.9,0,0,0,0
416,2020-03-30T06:55:00,0.7,北北西,1,北北西,5.5,85,0,0,0,0
417,2020-03-30T06:56:00,0.7,北北西,1,北北西,5.5,84.8,0,0,0,0
418,2020-03-30T06:57:00,0.7,北北西,1.4,北西,5.5,84.2,0,0,0,0
419,2020-03-30T06:58:00,0.7,北北西,1.4,北西,5.5,84.2,0,0,0,0
420,2020-03-30T06:59:00,0.8,北北西,1.4,北西,5.5,84,0,0,0,0
421,2020-03-30T07:00:00,0.8,北西,1.4,北西,5.5,83.5,0,0,0,0
422,2020-03-30T07:01:00,0.9,北西,1.8,西北西,5.5,83.6,0,0,0,0
423,2020-03-30T07:02:00,1,北西,1.9,西北西,5.6,83.6,0,0,0,0
424,2020-03-30T07:03:00,1.1,西北西,2,西南西,5.5,83.3,0,0,0,0
425,2020-03-30T07:04:00,1.1,西北西,2,西南西,5.6,83.3,0,0,0,0
426,2020-03-30T07:05:00,1.1,西北西,2,西南西,5.6,83.4,0,0,0,0